Current weather by "City, St" or "zip code"  
 
Advertise Here

Current Conditions: Sedalia, Sedalia Memorial Airport, MO

Fog/Mist


52.0 F

Last Updated on Feb 28 2021, 5:53 am CST
Humidity: 93%
Wind Speed: SW 6.9 mph
Barometer 29.78 in
Dewpoint: 50.0 F
Visibility: 2.00 mi
Precip: 00.01 in
Heat Index: NA
Wind Chill: 50 F
Current conditions at:

Sedalia, Sedalia Memorial Airport, MO (KDMO)

Lat: 38.71222 Lon: 93.17444

Local Radar Image active severe weather and emergency alerts image image weather storm and storm spotter reports image weather observation monitoring service image
Local
Radar
Active
Alerts
Storm Reports Obs
Monitoring

Sign-up For Email & Text Message Weather Alert Notification Services


Advertise Here

Observation History for Sedalia, Sedalia Memorial Airport, MO


Time Wind
(mph)
Vis
(mi)
Weather Precip (in) Temperature (F) Relative
Humidity
Wind
Chill
(F)
Heat
Index
(F)
Pressure
Air Dwpt altimeter
(in)
sea level
(mb)
Rmks
5:53 am CST SW 6.9 2.00 Fog/Mist 00.01 52.0 50.0 93% 50 NA 29.78 1008.3
4:53 am CST S 4.6 5.00 Light Rain Fog/Mist Trace 51.0 48.9 92% 50 NA 29.77 1007.8
3:53 am CST S 6.9 3.00 Fog/Mist -- 50.0 48.9 96% 47 NA 29.74 1007.0
2:53 am CST N 0.0 6.00 Fog/Mist Trace 51.0 50.0 96% NA NA 29.78 1008.1
1:53 am CST W 5.8 10.00 Light Rain Trace 53.0 50.0 89% 51 NA 29.79 1008.7
12:53 am CST S 12.7 10.00 Overcast -- 52.0 48.9 89% 48 NA 29.76 1007.7
11:53 pm CST S 10.4 10.00 Overcast -- 51.0 46.9 86% 47 NA 29.76 1007.8
10:53 pm CST S 12.7 10.00 Overcast -- 50.0 46.0 86% 45 NA 29.79 1008.7
9:53 pm CST S 16.1 10.00 Overcast Trace 51.0 44.1 77% 46 NA 29.81 1009.6
8:53 pm CST S 15.0 10.00 Overcast -- 53.0 41.0 64% 48 NA 29.81 1009.7
7:53 pm CST SE 13.8 10.00 Mostly Cloudy -- 56.0 39.0 53% 53 NA 29.82 1010.1
6:53 pm CST SE 17.3 10.00 Fair -- 57.0 37.0 47% 53 NA 29.82 1010.0
5:53 pm CST SE 15.0 10.00 Fair -- 58.0 35.1 42% 55 NA 29.83 1010.3
4:53 pm CST SE 15.0 10.00 Fair -- 60.0 36.0 41% 57 NA 29.84 1010.6
3:53 pm CST SE 16.1 10.00 Fair -- 62.0 35.1 37% 60 NA 29.86 1011.2
2:53 pm CST SE 16.1 10.00 Fair -- 61.0 37.0 41% 59 NA 29.89 1012.3
1:53 pm CST S 16.1 10.00 Fair -- 61.0 34.0 36% 59 NA 29.92 1013.2
12:53 pm CST S 12.7 10.00 Fair -- 61.0 36.0 39% 59 NA 29.96 1014.5
11:53 am CST S 8.1 10.00 Fair -- 56.0 39.9 55% 54 NA 29.99 1015.9
10:53 am CST S 10.4 10.00 Fair -- 54.0 41.0 62% 51 NA 30.01 1016.4
9:53 am CST SW 5.8 10.00 Fair -- 50.0 43.0 77% 48 NA 30.02 1016.6
8:53 am CST S 9.2 7.00 Fair -- 42.0 41.0 96% 36 NA 30.01 1016.8
7:53 am CST N 0.0 0.25 Fog -- 35.0 34.0 96% NA NA 30.00 1016.5
6:53 am CST S 4.6 0.15 Fog -- 33.0 32.0 96% 29 NA 29.99 1016.0

Regional Weather Observation


Whiteman Air Force Base, MO (KSZL)

Light Drizzle Fog/Mist
49.0 F

Skyhaven Airport, MO (KRCM)

Fog
48.0 F

Marshall Memorial Municipal Airport, MO (KMHL)

Fog/Mist
46.0 F

Warsaw Municipal Airport, MO (KRAW)

Light Drizzle
52.0 F

Clinton, MO, MO (KGLY)

Fog
50.0 F

Jesse Viertel Memorial Airport, MO (KVER)

Fog/Mist
NULL F
Advertise Here

Advertise Here